Location: Cutler
(25.6150°N, 80.3110°W)
Time: 10:58:12
(UTC-05:00)

ISS - Pass Details

Date: 19 November 2017
Orbit: 402 x 407 km, 51.6° (Epoch: 20 November)

Event Time Altitude Azimuth Distance (km) Brightness Sun altitude
Exits shadow 04:52:26 15° 38° (NE) 1,189 -1.2 -24.5°
Maximum altitude 04:52:32 15° 41° (NE) 1,188 -1.2 -24.5°
Drops below altitude 10° 04:54:30 10° 78° (ENE) 1,445 -0.1 -24.1°
Sets 04:57:13 0° 103° (ESE) 2,301 1.5 -23.5°
